owner,sensor,date,latitude,longitude,vertical_datum,sea_water_practical_salinity,qcFlag 
DISL,ioos:station:DISL:KATA:1,2015-09-01T00:00:00Z,30.2583,-88.2131,3.982,29.9,1111122 
DISL,ioos:station:DISL:KATA:1,2015-09-01T00:30:00Z,30.2583,-88.2131,3.99,29.96,1111122 
DISL,ioos:station:DISL:KATA:1,2015-09-01T01:00:00Z,30.2583,-88.2131,4.005,29.88,1111122 
DISL,ioos:station:DISL:KATA:1,2015-09-01T01:30:00Z,30.2583,-88.2131,4.033,29.92,1111122 
DISL,ioos:station:DISL:KATA:1,2015-09-01T02:00:00Z,30.2583,-88.2131,4.043,29.87,1111122 
DISL,ioos:station:DISL:KATA:1,2015-09-01T02:30:00Z,30.2583,-88.2131,4.064,29.87,1111122 
DISL,ioos:station:DISL:KATA:1,2015-09-01T03:00:00Z,30.2583,-88.2131,4.075,30.14,1111122 
DISL,ioos:station:DISL:KATA:1,2015-09-01T03:30:00Z,30.2583,-88.2131,4.082,29.93,1111122 
DISL,ioos:station:DISL:KATA:1,2015-09-01T04:00:00Z,30.2583,-88.2131,4.093,29.92,1111122 
DISL,ioos:station:DISL:KATA:1,2015-09-01T04:30:00Z,30.2583,-88.2131,4.099,29.89,1111122 
DISL,ioos:station:DISL:KATA:1,2015-09-01T05:00:00Z,30.2583,-88.2131,4.101,29.89,1111122 
DISL,ioos:station:DISL:KATA:1,2015-09-01T05:30:00Z,30.2583,-88.2131,4.104,29.91,1111122 
DISL,ioos:station:DISL:KATA:1,2015-09-01T06:00:00Z,30.2583,-88.2131,4.094,30.38,1111122 
DISL,ioos:station:DISL:KATA:1,2015-09-01T06:30:00Z,30.2583,-88.2131,4.093,30.19,1111122 
DISL,ioos:station:DISL:KATA:1,2015-09-01T07:00:00Z,30.2583,-88.2131,4.096,29.99,1111122 
DISL,ioos:station:DISL:KATA:1,2015-09-01T07:30:00Z,30.2583,-88.2131,4.094,30.02,1111122 
DISL,ioos:station:DISL:KATA:1,2015-09-01T08:00:00Z,30.2583,-88.2131,4.101,30.0,1111122 
DISL,ioos:station:DISL:KATA:1,2015-09-01T08:30:00Z,30.2583,-88.2131,4.103,30.01,1111122 
DISL,ioos:station:DISL:KATA:1,2015-09-01T09:00:00Z,30.2583,-88.2131,4.076,30.65,1111122 
DISL,ioos:station:DISL:KATA:1,2015-09-01T09:30:00Z,30.2583,-88.2131,4.067,30.86,1111122 
DISL,ioos:station:DISL:KATA:1,2015-09-01T10:00:00Z,30.2583,-88.2131,4.04,30.83,1111122 
DISL,ioos:station:DISL:KATA:1,2015-09-01T10:30:00Z,30.2583,-88.2131,4.009,30.22,1111122 
DISL,ioos:station:DISL:KATA:1,2015-09-01T11:00:00Z,30.2583,-88.2131,3.988,29.84,1111122 
DISL,ioos:station:DISL:KATA:1,2015-09-01T11:30:00Z,30.2583,-88.2131,3.964,29.99,1111122 
DISL,ioos:station:DISL:KATA:1,2015-09-01T12:00:00Z,30.2583,-88.2131,3.942,30.06,1111122 
DISL,ioos:station:DISL:KATA:1,2015-09-01T12:30:00Z,30.2583,-88.2131,3.935,29.65,1111122 
DISL,ioos:station:DISL:KATA:1,2015-09-01T13:00:00Z,30.2583,-88.2131,3.923,30.56,1111122 
DISL,ioos:station:DISL:KATA:1,2015-09-01T13:30:00Z,30.2583,-88.2131,3.935,29.91,1111122 
DISL,ioos:station:DISL:KATA:1,2015-09-01T14:00:00Z,30.2583,-88.2131,3.963,29.77,1111122 
DISL,ioos:station:DISL:KATA:1,2015-09-01T14:30:00Z,30.2583,-88.2131,3.996,29.72,1111122 
DISL,ioos:station:DISL:KATA:1,2015-09-01T15:00:00Z,30.2583,-88.2131,4.029,29.7,1111122 
DISL,ioos:station:DISL:KATA:1,2015-09-01T15:30:00Z,30.2583,-88.2131,4.06,29.77,1111122 
DISL,ioos:station:DISL:KATA:1,2015-09-01T16:00:00Z,30.2583,-88.2131,4.084,30.03,1111122 
DISL,ioos:station:DISL:KATA:1,2015-09-01T16:30:00Z,30.2583,-88.2131,4.097,29.87,1111122 
DISL,ioos:station:DISL:KATA:1,2015-09-01T17:00:00Z,30.2583,-88.2131,4.087,30.3,1111122 
DISL,ioos:station:DISL:KATA:1,2015-09-01T17:30:00Z,30.2583,-88.2131,4.08,30.39,1111122 
DISL,ioos:station:DISL:KATA:1,2015-09-01T18:00:00Z,30.2583,-88.2131,4.076,30.18,1111122 
DISL,ioos:station:DISL:KATA:1,2015-09-01T18:30:00Z,30.2583,-88.2131,4.071,30.16,1111122 
DISL,ioos:station:DISL:KATA:1,2015-09-01T19:00:00Z,30.2583,-88.2131,4.084,30.08,1111122 
DISL,ioos:station:DISL:KATA:1,2015-09-01T19:30:00Z,30.2583,-88.2131,4.096,30.69,1111122 
DISL,ioos:station:DISL:KATA:1,2015-09-01T20:00:00Z,30.2583,-88.2131,4.122,31.16,1111122 
DISL,ioos:station:DISL:KATA:1,2015-09-01T20:30:00Z,30.2583,-88.2131,4.152,30.48,1111122 
DISL,ioos:station:DISL:KATA:1,2015-09-01T21:00:00Z,30.2583,-88.2131,4.16,30.39,1111122 
DISL,ioos:station:DISL:KATA:1,2015-09-01T21:30:00Z,30.2583,-88.2131,4.165,30.33,1111122 
DISL,ioos:station:DISL:KATA:1,2015-09-01T22:00:00Z,30.2583,-88.2131,4.142,30.33,1111122 
DISL,ioos:station:DISL:KATA:1,2015-09-01T22:30:00Z,30.2583,-88.2131,4.114,30.64,1111122 
DISL,ioos:station:DISL:KATA:1,2015-09-01T23:00:00Z,30.2583,-88.2131,4.092,30.07,1111122 
DISL,ioos:station:DISL:KATA:1,2015-09-01T23:30:00Z,30.2583,-88.2131,4.076,30.4,1111122 
DISL,ioos:station:DISL:KATA:1,2015-09-02T00:00:00Z,30.2583,-88.2131,4.079,30.02,1111122 
DISL,ioos:station:DISL:KATA:1,2015-09-02T00:30:00Z,30.2583,-88.2131,4.072,30.81,1111122 
DISL,ioos:station:DISL:KATA:1,2015-09-02T01:00:00Z,30.2583,-88.2131,4.099,30.06,1111122 
DISL,ioos:station:DISL:KATA:1,2015-09-02T01:30:00Z,30.2583,-88.2131,4.13,30.23,1111122 
DISL,ioos:station:DISL:KATA:1,2015-09-02T02:00:00Z,30.2583,-88.2131,4.14,30.25,1111122 
DISL,ioos:station:DISL:KATA:1,2015-09-02T02:30:00Z,30.2583,-88.2131,4.151,28.71,1111122 
DISL,ioos:station:DISL:KATA:1,2015-09-02T03:00:00Z,30.2583,-88.2131,4.157,29.93,1111122 
DISL,ioos:station:DISL:KATA:1,2015-09-02T03:30:00Z,30.2583,-88.2131,4.173,29.95,1111122 
DISL,ioos:station:DISL:KATA:1,2015-09-02T04:00:00Z,30.2583,-88.2131,4.189,30.3,1111122 
DISL,ioos:station:DISL:KATA:1,2015-09-02T04:30:00Z,30.2583,-88.2131,4.208,29.75,1111122 
DISL,ioos:station:DISL:KATA:1,2015-09-02T05:00:00Z,30.2583,-88.2131,4.211,30.78,1111122 
DISL,ioos:station:DISL:KATA:1,2015-09-02T05:30:00Z,30.2583,-88.2131,4.204,30.82,1111122 
DISL,ioos:station:DISL:KATA:1,2015-09-02T06:00:00Z,30.2583,-88.2131,4.19,30.67,1111122 
DISL,ioos:station:DISL:KATA:1,2015-09-02T06:30:00Z,30.2583,-88.2131,4.163,30.65,1111122 
DISL,ioos:station:DISL:KATA:1,2015-09-02T07:00:00Z,30.2583,-88.2131,4.142,30.47,1111122 
DISL,ioos:station:DISL:KATA:1,2015-09-02T07:30:00Z,30.2583,-88.2131,4.133,29.86,1111122 
DISL,ioos:station:DISL:KATA:1,2015-09-02T08:00:00Z,30.2583,-88.2131,4.124,30.77,1111122 
DISL,ioos:station:DISL:KATA:1,2015-09-02T08:30:00Z,30.2583,-88.2131,4.128,30.71,1111122 
DISL,ioos:station:DISL:KATA:1,2015-09-02T09:00:00Z,30.2583,-88.2131,4.126,30.69,1111122 
DISL,ioos:station:DISL:KATA:1,2015-09-02T09:30:00Z,30.2583,-88.2131,4.112,30.64,1111122 
DISL,ioos:station:DISL:KATA:1,2015-09-02T10:00:00Z,30.2583,-88.2131,4.088,30.58,1111122 
DISL,ioos:station:DISL:KATA:1,2015-09-02T10:30:00Z,30.2583,-88.2131,4.048,30.46,1111122 
DISL,ioos:station:DISL:KATA:1,2015-09-02T11:00:00Z,30.2583,-88.2131,4.006,30.36,1111122 
DISL,ioos:station:DISL:KATA:1,2015-09-02T11:30:00Z,30.2583,-88.2131,3.978,29.79,1111122 
DISL,ioos:station:DISL:KATA:1,2015-09-02T12:00:00Z,30.2583,-88.2131,3.946,29.32,1111122 
DISL,ioos:station:DISL:KATA:1,2015-09-02T12:30:00Z,30.2583,-88.2131,3.917,29.46,1111122 
DISL,ioos:station:DISL:KATA:1,2015-09-02T13:00:00Z,30.2583,-88.2131,3.9,29.14,1111122 
DISL,ioos:station:DISL:KATA:1,2015-09-02T13:30:00Z,30.2583,-88.2131,3.897,29.1,1111122 
DISL,ioos:station:DISL:KATA:1,2015-09-02T14:00:00Z,30.2583,-88.2131,3.893,29.12,1111122 
DISL,ioos:station:DISL:KATA:1,2015-09-02T14:30:00Z,30.2583,-88.2131,3.9,29.12,1111122 
DISL,ioos:station:DISL:KATA:1,2015-09-02T15:00:00Z,30.2583,-88.2131,3.912,29.07,1111122 
DISL,ioos:station:DISL:KATA:1,2015-09-02T15:30:00Z,30.2583,-88.2131,3.927,29.17,1111122 
DISL,ioos:station:DISL:KATA:1,2015-09-02T16:00:00Z,30.2583,-88.2131,3.935,29.2,1111122 
DISL,ioos:station:DISL:KATA:1,2015-09-02T16:30:00Z,30.2583,-88.2131,3.95,29.3,1111122 
DISL,ioos:station:DISL:KATA:1,2015-09-02T17:00:00Z,30.2583,-88.2131,3.961,29.69,1111122 
DISL,ioos:station:DISL:KATA:1,2015-09-02T17:30:00Z,30.2583,-88.2131,3.965,29.77,1111122 
DISL,ioos:station:DISL:KATA:1,2015-09-02T18:00:00Z,30.2583,-88.2131,3.969,29.64,1111122 
DISL,ioos:station:DISL:KATA:1,2015-09-02T18:30:00Z,30.2583,-88.2131,3.973,29.85,1111122 
DISL,ioos:station:DISL:KATA:1,2015-09-02T19:00:00Z,30.2583,-88.2131,3.976,30.28,1111122 
DISL,ioos:station:DISL:KATA:1,2015-09-02T19:30:00Z,30.2583,-88.2131,3.979,29.93,1111122 
DISL,ioos:station:DISL:KATA:1,2015-09-02T20:00:00Z,30.2583,-88.2131,3.992,30.06,1111122 
DISL,ioos:station:DISL:KATA:1,2015-09-02T20:30:00Z,30.2583,-88.2131,4.013,30.06,1111122 
DISL,ioos:station:DISL:KATA:1,2015-09-02T21:00:00Z,30.2583,-88.2131,4.036,29.75,1111122 
DISL,ioos:station:DISL:KATA:1,2015-09-02T21:30:00Z,30.2583,-88.2131,4.043,30.4,1111122 
DISL,ioos:station:DISL:KATA:1,2015-09-02T22:00:00Z,30.2583,-88.2131,4.06,30.21,1111122 
DISL,ioos:station:DISL:KATA:1,2015-09-02T22:30:00Z,30.2583,-88.2131,4.067,29.87,1111122 
DISL,ioos:station:DISL:KATA:1,2015-09-02T23:00:00Z,30.2583,-88.2131,4.083,29.86,1111122 
DISL,ioos:station:DISL:KATA:1,2015-09-02T23:30:00Z,30.2583,-88.2131,4.09,29.9,1111122 
DISL,ioos:station:DISL:KATA:1,2015-09-03T00:00:00Z,30.2583,-88.2131,4.09,29.98,1111122 
DISL,ioos:station:DISL:KATA:1,2015-09-03T00:30:00Z,30.2583,-88.2131,4.093,30.89,1111122 
DISL,ioos:station:DISL:KATA:1,2015-09-03T01:00:00Z,30.2583,-88.2131,4.103,30.88,1111122 
DISL,ioos:station:DISL:KATA:1,2015-09-03T01:30:00Z,30.2583,-88.2131,4.106,30.86,1111122 
DISL,ioos:station:DISL:KATA:1,2015-09-03T02:00:00Z,30.2583,-88.2131,4.115,30.66,1111122 
DISL,ioos:station:DISL:KATA:1,2015-09-03T02:30:00Z,30.2583,-88.2131,4.139,30.62,1111122 
DISL,ioos:station:DISL:KATA:1,2015-09-03T03:00:00Z,30.2583,-88.2131,4.162,30.61,1111122 
DISL,ioos:station:DISL:KATA:1,2015-09-03T03:30:00Z,30.2583,-88.2131,4.184,30.6,1111122 
DISL,ioos:station:DISL:KATA:1,2015-09-03T04:00:00Z,30.2583,-88.2131,4.221,30.6,1111122 
DISL,ioos:station:DISL:KATA:1,2015-09-03T04:30:00Z,30.2583,-88.2131,4.242,30.61,1111122 
DISL,ioos:station:DISL:KATA:1,2015-09-03T05:00:00Z,30.2583,-88.2131,4.262,30.61,1111122 
DISL,ioos:station:DISL:KATA:1,2015-09-03T05:30:00Z,30.2583,-88.2131,4.276,30.6,1111122 
DISL,ioos:station:DISL:KATA:1,2015-09-03T06:00:00Z,30.2583,-88.2131,4.275,30.58,1111122 
DISL,ioos:station:DISL:KATA:1,2015-09-03T06:30:00Z,30.2583,-88.2131,4.263,30.57,1111122 
DISL,ioos:station:DISL:KATA:1,2015-09-03T07:00:00Z,30.2583,-88.2131,4.246,30.59,1111122 
DISL,ioos:station:DISL:KATA:1,2015-09-03T07:30:00Z,30.2583,-88.2131,4.223,30.56,1111122 
DISL,ioos:station:DISL:KATA:1,2015-09-03T08:00:00Z,30.2583,-88.2131,4.21,30.55,1111122 
DISL,ioos:station:DISL:KATA:1,2015-09-03T08:30:00Z,30.2583,-88.2131,4.201,30.52,1111122 
DISL,ioos:station:DISL:KATA:1,2015-09-03T09:00:00Z,30.2583,-88.2131,4.19,30.49,1111122 
DISL,ioos:station:DISL:KATA:1,2015-09-03T09:30:00Z,30.2583,-88.2131,4.193,30.45,1111122 
DISL,ioos:station:DISL:KATA:1,2015-09-03T10:00:00Z,30.2583,-88.2131,4.188,30.41,1111122 
DISL,ioos:station:DISL:KATA:1,2015-09-03T10:30:00Z,30.2583,-88.2131,4.179,30.35,1111122 
DISL,ioos:station:DISL:KATA:1,2015-09-03T11:00:00Z,30.2583,-88.2131,4.165,30.31,1111122 
DISL,ioos:station:DISL:KATA:1,2015-09-03T11:30:00Z,30.2583,-88.2131,4.128,30.44,1111122 
DISL,ioos:station:DISL:KATA:1,2015-09-03T12:00:00Z,30.2583,-88.2131,4.083,30.37,1111122 
DISL,ioos:station:DISL:KATA:1,2015-09-03T12:30:00Z,30.2583,-88.2131,4.038,30.3,1111122 
DISL,ioos:station:DISL:KATA:1,2015-09-03T13:00:00Z,30.2583,-88.2131,3.991,29.93,1111122 
DISL,ioos:station:DISL:KATA:1,2015-09-03T13:30:00Z,30.2583,-88.2131,3.95,29.64,1111122 
DISL,ioos:station:DISL:KATA:1,2015-09-03T14:00:00Z,30.2583,-88.2131,3.916,29.68,1111122 
DISL,ioos:station:DISL:KATA:1,2015-09-03T14:30:00Z,30.2583,-88.2131,3.901,29.55,1111122 
DISL,ioos:station:DISL:KATA:1,2015-09-03T15:00:00Z,30.2583,-88.2131,3.898,29.99,1111122 
DISL,ioos:station:DISL:KATA:1,2015-09-03T15:30:00Z,30.2583,-88.2131,3.913,29.68,1111122 
DISL,ioos:station:DISL:KATA:1,2015-09-03T16:00:00Z,30.2583,-88.2131,3.937,29.39,1111122 
DISL,ioos:station:DISL:KATA:1,2015-09-03T16:30:00Z,30.2583,-88.2131,3.95,29.62,1111122 
DISL,ioos:station:DISL:KATA:1,2015-09-03T17:00:00Z,30.2583,-88.2131,3.956,29.26,1111122 
DISL,ioos:station:DISL:KATA:1,2015-09-03T17:30:00Z,30.2583,-88.2131,3.95,29.89,1111122 
DISL,ioos:station:DISL:KATA:1,2015-09-03T18:00:00Z,30.2583,-88.2131,3.939,30.03,1111122 
DISL,ioos:station:DISL:KATA:1,2015-09-03T18:30:00Z,30.2583,-88.2131,3.939,29.13,1111122 
DISL,ioos:station:DISL:KATA:1,2015-09-03T19:00:00Z,30.2583,-88.2131,3.921,29.12,1111122 
DISL,ioos:station:DISL:KATA:1,2015-09-03T19:30:00Z,30.2583,-88.2131,3.917,29.28,1111122 
DISL,ioos:station:DISL:KATA:1,2015-09-03T20:00:00Z,30.2583,-88.2131,3.93,30.13,1111122 
DISL,ioos:station:DISL:KATA:1,2015-09-03T20:30:00Z,30.2583,-88.2131,3.964,29.76,1111122 
DISL,ioos:station:DISL:KATA:1,2015-09-03T21:00:00Z,30.2583,-88.2131,3.978,29.86,1111122 
DISL,ioos:station:DISL:KATA:1,2015-09-03T21:30:00Z,30.2583,-88.2131,4.005,29.38,1111122 
DISL,ioos:station:DISL:KATA:1,2015-09-03T22:00:00Z,30.2583,-88.2131,4.039,30.25,1111122 
DISL,ioos:station:DISL:KATA:1,2015-09-03T22:30:00Z,30.2583,-88.2131,4.044,29.85,1111122 
DISL,ioos:station:DISL:KATA:1,2015-09-03T23:00:00Z,30.2583,-88.2131,4.051,30.0,1111122 
DISL,ioos:station:DISL:KATA:1,2015-09-03T23:30:00Z,30.2583,-88.2131,4.046,29.94,1111122 
DISL,ioos:station:DISL:KATA:1,2015-09-04T00:00:00Z,30.2583,-88.2131,4.039,30.37,1111122 
DISL,ioos:station:DISL:KATA:1,2015-09-04T00:30:00Z,30.2583,-88.2131,4.058,30.6,1111122 
DISL,ioos:station:DISL:KATA:1,2015-09-04T01:00:00Z,30.2583,-88.2131,4.089,30.45,1111122 
DISL,ioos:station:DISL:KATA:1,2015-09-04T01:30:00Z,30.2583,-88.2131,4.114,30.04,1111122 
DISL,ioos:station:DISL:KATA:1,2015-09-04T02:00:00Z,30.2583,-88.2131,4.109,30.1,1111122 
DISL,ioos:station:DISL:KATA:1,2015-09-04T02:30:00Z,30.2583,-88.2131,4.117,29.81,1111122 
DISL,ioos:station:DISL:KATA:1,2015-09-04T03:00:00Z,30.2583,-88.2131,4.115,30.55,1111122 
DISL,ioos:station:DISL:KATA:1,2015-09-04T03:30:00Z,30.2583,-88.2131,4.137,30.53,1111122 
DISL,ioos:station:DISL:KATA:1,2015-09-04T04:00:00Z,30.2583,-88.2131,4.159,30.54,1111122 
DISL,ioos:station:DISL:KATA:1,2015-09-04T04:30:00Z,30.2583,-88.2131,4.189,30.44,1111122 
DISL,ioos:station:DISL:KATA:1,2015-09-04T05:00:00Z,30.2583,-88.2131,4.221,30.37,1111122 
DISL,ioos:station:DISL:KATA:1,2015-09-04T05:30:00Z,30.2583,-88.2131,4.242,30.32,1111122 
DISL,ioos:station:DISL:KATA:1,2015-09-04T06:00:00Z,30.2583,-88.2131,4.256,30.36,1111122 
DISL,ioos:station:DISL:KATA:1,2015-09-04T06:30:00Z,30.2583,-88.2131,4.257,30.51,1111122 
DISL,ioos:station:DISL:KATA:1,2015-09-04T07:00:00Z,30.2583,-88.2131,4.244,30.51,1111122 
DISL,ioos:station:DISL:KATA:1,2015-09-04T07:30:00Z,30.2583,-88.2131,4.237,30.5,1111122 
DISL,ioos:station:DISL:KATA:1,2015-09-04T08:00:00Z,30.2583,-88.2131,4.232,30.48,1111122 
DISL,ioos:station:DISL:KATA:1,2015-09-04T08:30:00Z,30.2583,-88.2131,4.223,30.44,1111122 
DISL,ioos:station:DISL:KATA:1,2015-09-04T09:00:00Z,30.2583,-88.2131,4.22,30.41,1111122 
DISL,ioos:station:DISL:KATA:1,2015-09-04T09:30:00Z,30.2583,-88.2131,4.208,30.34,1111122 
DISL,ioos:station:DISL:KATA:1,2015-09-04T10:00:00Z,30.2583,-88.2131,4.197,30.29,1111122 
DISL,ioos:station:DISL:KATA:1,2015-09-04T10:30:00Z,30.2583,-88.2131,4.177,30.25,1111122 
DISL,ioos:station:DISL:KATA:1,2015-09-04T11:00:00Z,30.2583,-88.2131,4.145,30.2,1111122 
DISL,ioos:station:DISL:KATA:1,2015-09-04T11:30:00Z,30.2583,-88.2131,4.11,30.0,1111122 
DISL,ioos:station:DISL:KATA:1,2015-09-04T12:00:00Z,30.2583,-88.2131,4.077,29.75,1111122 
DISL,ioos:station:DISL:KATA:1,2015-09-04T12:30:00Z,30.2583,-88.2131,4.047,29.63,1111122 
DISL,ioos:station:DISL:KATA:1,2015-09-04T13:00:00Z,30.2583,-88.2131,4.022,29.52,1111122 
DISL,ioos:station:DISL:KATA:1,2015-09-04T13:30:00Z,30.2583,-88.2131,3.997,29.58,1111122 
DISL,ioos:station:DISL:KATA:1,2015-09-04T14:00:00Z,30.2583,-88.2131,3.969,28.95,1111122 
DISL,ioos:station:DISL:KATA:1,2015-09-04T14:30:00Z,30.2583,-88.2131,3.935,28.4,1111122 
DISL,ioos:station:DISL:KATA:1,2015-09-04T15:00:00Z,30.2583,-88.2131,3.903,28.71,1111122 
DISL,ioos:station:DISL:KATA:1,2015-09-04T15:30:00Z,30.2583,-88.2131,3.88,28.95,1111122 
DISL,ioos:station:DISL:KATA:1,2015-09-04T16:00:00Z,30.2583,-88.2131,3.854,28.5,1111122 
DISL,ioos:station:DISL:KATA:1,2015-09-04T16:30:00Z,30.2583,-88.2131,3.838,29.1,1111122 
DISL,ioos:station:DISL:KATA:1,2015-09-04T17:00:00Z,30.2583,-88.2131,3.827,29.11,1111122 
DISL,ioos:station:DISL:KATA:1,2015-09-04T17:30:00Z,30.2583,-88.2131,3.829,28.62,1111122 
DISL,ioos:station:DISL:KATA:1,2015-09-04T18:00:00Z,30.2583,-88.2131,3.835,28.63,1111122 
DISL,ioos:station:DISL:KATA:1,2015-09-04T18:30:00Z,30.2583,-88.2131,3.845,28.46,1111122 
DISL,ioos:station:DISL:KATA:1,2015-09-04T19:00:00Z,30.2583,-88.2131,3.853,28.25,1111122 
DISL,ioos:station:DISL:KATA:1,2015-09-04T19:30:00Z,30.2583,-88.2131,3.865,28.35,1111122 
DISL,ioos:station:DISL:KATA:1,2015-09-04T20:00:00Z,30.2583,-88.2131,3.856,28.49,1111122 
DISL,ioos:station:DISL:KATA:1,2015-09-04T20:30:00Z,30.2583,-88.2131,3.843,28.92,1111122 
DISL,ioos:station:DISL:KATA:1,2015-09-04T21:00:00Z,30.2583,-88.2131,3.833,29.18,1111122 
DISL,ioos:station:DISL:KATA:1,2015-09-04T21:30:00Z,30.2583,-88.2131,3.84,29.44,1111122 
DISL,ioos:station:DISL:KATA:1,2015-09-04T22:00:00Z,30.2583,-88.2131,3.855,28.95,1111122 
DISL,ioos:station:DISL:KATA:1,2015-09-04T22:30:00Z,30.2583,-88.2131,3.88,28.76,1111122 
DISL,ioos:station:DISL:KATA:1,2015-09-04T23:00:00Z,30.2583,-88.2131,3.923,28.78,1111122 
DISL,ioos:station:DISL:KATA:1,2015-09-04T23:30:00Z,30.2583,-88.2131,3.96,28.92,1111122 
DISL,ioos:station:DISL:KATA:1,2015-09-05T00:00:00Z,30.2583,-88.2131,4.013,28.84,1111122 
DISL,ioos:station:DISL:KATA:1,2015-09-05T00:30:00Z,30.2583,-88.2131,4.044,29.17,1111122 
DISL,ioos:station:DISL:KATA:1,2015-09-05T01:00:00Z,30.2583,-88.2131,4.072,27.86,1111122 
DISL,ioos:station:DISL:KATA:1,2015-09-05T01:30:00Z,30.2583,-88.2131,4.073,29.54,1111122 
DISL,ioos:station:DISL:KATA:1,2015-09-05T02:00:00Z,30.2583,-88.2131,4.075,29.57,1111122 
DISL,ioos:station:DISL:KATA:1,2015-09-05T02:30:00Z,30.2583,-88.2131,4.071,29.63,1111122 
DISL,ioos:station:DISL:KATA:1,2015-09-05T03:00:00Z,30.2583,-88.2131,4.072,29.71,1111122 
DISL,ioos:station:DISL:KATA:1,2015-09-05T03:30:00Z,30.2583,-88.2131,4.094,29.72,1111122 
DISL,ioos:station:DISL:KATA:1,2015-09-05T04:00:00Z,30.2583,-88.2131,4.112,29.57,1111122 
DISL,ioos:station:DISL:KATA:1,2015-09-05T04:30:00Z,30.2583,-88.2131,4.141,29.12,1111122 
DISL,ioos:station:DISL:KATA:1,2015-09-05T05:00:00Z,30.2583,-88.2131,4.17,29.72,1111122 
DISL,ioos:station:DISL:KATA:1,2015-09-05T05:30:00Z,30.2583,-88.2131,4.2,29.71,1111122 
DISL,ioos:station:DISL:KATA:1,2015-09-05T06:00:00Z,30.2583,-88.2131,4.232,29.74,1111122 
DISL,ioos:station:DISL:KATA:1,2015-09-05T06:30:00Z,30.2583,-88.2131,4.251,29.22,1111122 
DISL,ioos:station:DISL:KATA:1,2015-09-05T07:00:00Z,30.2583,-88.2131,4.254,29.83,1111122 
DISL,ioos:station:DISL:KATA:1,2015-09-05T07:30:00Z,30.2583,-88.2131,4.256,29.86,1111122 
DISL,ioos:station:DISL:KATA:1,2015-09-05T08:00:00Z,30.2583,-88.2131,4.237,29.76,1111122 
DISL,ioos:station:DISL:KATA:1,2015-09-05T08:30:00Z,30.2583,-88.2131,4.231,29.68,1111122 
DISL,ioos:station:DISL:KATA:1,2015-09-05T09:00:00Z,30.2583,-88.2131,4.225,29.66,1111122 
DISL,ioos:station:DISL:KATA:1,2015-09-05T09:30:00Z,30.2583,-88.2131,4.211,29.69,1111122 
DISL,ioos:station:DISL:KATA:1,2015-09-05T10:00:00Z,30.2583,-88.2131,4.194,29.51,1111122 
DISL,ioos:station:DISL:KATA:1,2015-09-05T10:30:00Z,30.2583,-88.2131,4.183,29.56,1111122 
DISL,ioos:station:DISL:KATA:1,2015-09-05T11:00:00Z,30.2583,-88.2131,4.166,29.58,1111122 
DISL,ioos:station:DISL:KATA:1,2015-09-05T11:30:00Z,30.2583,-88.2131,4.144,29.55,1111122 
DISL,ioos:station:DISL:KATA:1,2015-09-05T12:00:00Z,30.2583,-88.2131,4.127,29.22,1111122 
DISL,ioos:station:DISL:KATA:1,2015-09-05T12:30:00Z,30.2583,-88.2131,4.107,29.5,1111122 
DISL,ioos:station:DISL:KATA:1,2015-09-05T13:00:00Z,30.2583,-88.2131,4.077,29.09,1111122 
DISL,ioos:station:DISL:KATA:1,2015-09-05T13:30:00Z,30.2583,-88.2131,4.034,29.74,1111122 
DISL,ioos:station:DISL:KATA:1,2015-09-05T14:00:00Z,30.2583,-88.2131,3.998,29.7,1111122 
DISL,ioos:station:DISL:KATA:1,2015-09-05T14:30:00Z,30.2583,-88.2131,3.964,29.49,1111122 
DISL,ioos:station:DISL:KATA:1,2015-09-05T15:00:00Z,30.2583,-88.2131,3.929,28.7,1111122 
DISL,ioos:station:DISL:KATA:1,2015-09-05T15:30:00Z,30.2583,-88.2131,3.894,29.03,1111122 
DISL,ioos:station:DISL:KATA:1,2015-09-05T16:00:00Z,30.2583,-88.2131,3.864,28.9,1111122 
DISL,ioos:station:DISL:KATA:1,2015-09-05T16:30:00Z,30.2583,-88.2131,3.835,29.05,1111122 
DISL,ioos:station:DISL:KATA:1,2015-09-05T17:00:00Z,30.2583,-88.2131,3.817,29.08,1111122 
DISL,ioos:station:DISL:KATA:1,2015-09-05T17:30:00Z,30.2583,-88.2131,3.796,28.9,1111122 
DISL,ioos:station:DISL:KATA:1,2015-09-05T18:00:00Z,30.2583,-88.2131,3.793,28.63,1111122 
DISL,ioos:station:DISL:KATA:1,2015-09-05T18:30:00Z,30.2583,-88.2131,3.793,28.62,1111122 
DISL,ioos:station:DISL:KATA:1,2015-09-05T19:00:00Z,30.2583,-88.2131,3.805,28.62,1111122 
DISL,ioos:station:DISL:KATA:1,2015-09-05T19:30:00Z,30.2583,-88.2131,3.819,28.83,1111122 
DISL,ioos:station:DISL:KATA:1,2015-09-05T20:00:00Z,30.2583,-88.2131,3.815,29.37,1111122 
DISL,ioos:station:DISL:KATA:1,2015-09-05T20:30:00Z,30.2583,-88.2131,3.82,29.35,1111122 
DISL,ioos:station:DISL:KATA:1,2015-09-05T21:00:00Z,30.2583,-88.2131,3.786,29.18,1111122 
DISL,ioos:station:DISL:KATA:1,2015-09-05T21:30:00Z,30.2583,-88.2131,3.768,29.31,1111122 
DISL,ioos:station:DISL:KATA:1,2015-09-05T22:00:00Z,30.2583,-88.2131,3.777,28.51,1111122 
DISL,ioos:station:DISL:KATA:1,2015-09-05T22:30:00Z,30.2583,-88.2131,3.798,29.32,1111122 
DISL,ioos:station:DISL:KATA:1,2015-09-05T23:00:00Z,30.2583,-88.2131,3.83,28.7,1111122 
DISL,ioos:station:DISL:KATA:1,2015-09-05T23:30:00Z,30.2583,-88.2131,3.87,29.05,1111122 
DISL,ioos:station:DISL:KATA:1,2015-09-06T00:00:00Z,30.2583,-88.2131,3.914,28.55,1111122 
DISL,ioos:station:DISL:KATA:1,2015-09-06T00:30:00Z,30.2583,-88.2131,3.953,28.78,1111122 
DISL,ioos:station:DISL:KATA:1,2015-09-06T01:00:00Z,30.2583,-88.2131,3.959,28.39,1111122 
DISL,ioos:station:DISL:KATA:1,2015-09-06T01:30:00Z,30.2583,-88.2131,3.971,29.34,1111122 
DISL,ioos:station:DISL:KATA:1,2015-09-06T02:00:00Z,30.2583,-88.2131,3.984,29.63,1111122 
DISL,ioos:station:DISL:KATA:1,2015-09-06T02:30:00Z,30.2583,-88.2131,4.007,29.37,1111122 
DISL,ioos:station:DISL:KATA:1,2015-09-06T03:00:00Z,30.2583,-88.2131,4.016,29.52,1111122 
DISL,ioos:station:DISL:KATA:1,2015-09-06T03:30:00Z,30.2583,-88.2131,4.036,29.55,1111122 
DISL,ioos:station:DISL:KATA:1,2015-09-06T04:00:00Z,30.2583,-88.2131,4.061,29.41,1111122 
DISL,ioos:station:DISL:KATA:1,2015-09-06T04:30:00Z,30.2583,-88.2131,4.076,29.75,1111122 
DISL,ioos:station:DISL:KATA:1,2015-09-06T05:00:00Z,30.2583,-88.2131,4.088,29.61,1111122 
DISL,ioos:station:DISL:KATA:1,2015-09-06T05:30:00Z,30.2583,-88.2131,4.101,29.63,1111122 
DISL,ioos:station:DISL:KATA:1,2015-09-06T06:00:00Z,30.2583,-88.2131,4.116,29.64,1111122 
DISL,ioos:station:DISL:KATA:1,2015-09-06T06:30:00Z,30.2583,-88.2131,4.143,29.45,1111122 
DISL,ioos:station:DISL:KATA:1,2015-09-06T07:00:00Z,30.2583,-88.2131,4.166,28.8,1111122 
DISL,ioos:station:DISL:KATA:1,2015-09-06T07:30:00Z,30.2583,-88.2131,4.177,28.65,1111122 
DISL,ioos:station:DISL:KATA:1,2015-09-06T08:00:00Z,30.2583,-88.2131,4.234,29.22,1111122 
DISL,ioos:station:DISL:KATA:1,2015-09-06T08:30:00Z,30.2583,-88.2131,4.264,29.64,1111122 
DISL,ioos:station:DISL:KATA:1,2015-09-06T09:00:00Z,30.2583,-88.2131,4.272,29.36,1111122 
DISL,ioos:station:DISL:KATA:1,2015-09-06T09:30:00Z,30.2583,-88.2131,4.282,29.87,1111122 
DISL,ioos:station:DISL:KATA:1,2015-09-06T10:00:00Z,30.2583,-88.2131,4.252,29.46,1111122 
DISL,ioos:station:DISL:KATA:1,2015-09-06T10:30:00Z,30.2583,-88.2131,4.252,28.13,1111122 
DISL,ioos:station:DISL:KATA:1,2015-09-06T11:00:00Z,30.2583,-88.2131,4.271,28.64,1111122 
DISL,ioos:station:DISL:KATA:1,2015-09-06T11:30:00Z,30.2583,-88.2131,4.276,29.46,1111122 
DISL,ioos:station:DISL:KATA:1,2015-09-06T12:00:00Z,30.2583,-88.2131,4.291,27.93,1111122 
DISL,ioos:station:DISL:KATA:1,2015-09-06T12:30:00Z,30.2583,-88.2131,4.275,29.06,1111122 
DISL,ioos:station:DISL:KATA:1,2015-09-06T13:00:00Z,30.2583,-88.2131,4.265,29.32,1111122 
DISL,ioos:station:DISL:KATA:1,2015-09-06T13:30:00Z,30.2583,-88.2131,4.213,29.29,1111122 
DISL,ioos:station:DISL:KATA:1,2015-09-06T14:00:00Z,30.2583,-88.2131,4.162,29.25,1111122 